Time,TemperatureF,DewpointF,PressureIn,WindDirection,WindDirectionDegrees,WindSpeedMPH,WindSpeedGustMPH,Humidity,HourlyPrecipIn,Conditions,Clouds,dailyrainin,SoftwareType,DateUTC
2013-03-26 00:00:00,32.9,13.4,29.52,North,0,0.0,0.0,44,0.00,,OVC070,0.00,VWS V13.01,2013-03-26 04:00:00,
2013-03-26 00:05:00,33.1,13.6,29.52,North,0,0.0,0.0,44,0.00,,OVC070,0.00,VWS V13.01,2013-03-26 04:05:00,
2013-03-26 00:10:00,33.1,13.6,29.49,North,0,0.0,0.0,44,0.00,,OVC070,0.00,VWS V13.01,2013-03-26 04:10:00,
2013-03-26 00:15:00,33.3,13.7,29.49,North,0,0.0,0.0,44,0.00,,OVC070,0.00,VWS V13.01,2013-03-26 04:15:00,
2013-03-26 00:20:00,33.3,13.7,29.49,North,0,0.0,0.0,44,0.00,,OVC070,0.00,VWS V13.01,2013-03-26 04:20:00,
2013-03-26 00:25:00,33.3,13.7,29.52,North,0,0.0,0.0,44,0.00,,OVC070,0.00,VWS V13.01,2013-03-26 04:25:00,
2013-03-26 00:30:00,33.1,13.6,29.52,North,0,0.0,0.0,44,0.00,,OVC070,0.00,VWS V13.01,2013-03-26 04:30:00,
2013-03-26 00:35:00,33.1,13.6,29.52,North,0,0.0,0.0,44,0.00,,OVC070,0.00,VWS V13.01,2013-03-26 04:35:00,
2013-03-26 00:40:00,33.1,13.6,29.52,North,0,0.0,0.0,44,0.00,,OVC070,0.00,VWS V13.01,2013-03-26 04:40:00,
2013-03-26 00:45:00,33.1,13.6,29.52,North,0,0.0,0.0,44,0.00,,OVC070,0.00,VWS V13.01,2013-03-26 04:45:00,
2013-03-26 00:50:00,33.1,13.6,29.52,North,0,0.0,0.0,44,0.00,,OVC070,0.00,VWS V13.01,2013-03-26 04:50:00,
2013-03-26 00:55:00,33.1,13.6,29.52,North,0,0.0,0.0,44,0.00,,OVC070,0.00,VWS V13.01,2013-03-26 04:55:00,
2013-03-26 01:00:00,33.3,13.7,29.52,North,0,0.0,0.0,44,0.00,,OVC070,0.00,VWS V13.01,2013-03-26 05:00:00,
2013-03-26 01:05:00,33.4,13.9,29.52,North,0,0.0,0.0,44,0.00,,OVC070,0.00,VWS V13.01,2013-03-26 05:05:00,
2013-03-26 01:10:00,33.4,13.9,29.52,North,0,0.0,0.0,44,0.00,,OVC070,0.00,VWS V13.01,2013-03-26 05:10:00,
2013-03-26 01:15:00,33.6,14.1,29.52,North,0,0.0,0.0,44,0.00,,OVC070,0.00,VWS V13.01,2013-03-26 05:15:00,
2013-03-26 01:20:00,33.6,14.1,29.52,North,0,0.0,0.0,44,0.00,,OVC070,0.00,VWS V13.01,2013-03-26 05:20:00,
2013-03-26 01:25:00,33.8,13.7,29.52,North,0,0.0,0.0,43,0.00,,OVC070,0.00,VWS V13.01,2013-03-26 05:25:00,
2013-03-26 01:30:00,33.8,13.7,29.52,North,0,0.0,0.0,43,0.00,,OVC070,0.00,VWS V13.01,2013-03-26 05:30:00,
2013-03-26 01:35:00,33.8,13.7,29.52,North,0,0.0,0.0,43,0.00,,OVC080,0.00,VWS V13.01,2013-03-26 05:35:00,
2013-03-26 01:40:00,33.6,13.5,29.52,North,0,0.0,0.0,43,0.00,,OVC080,0.00,VWS V13.01,2013-03-26 05:40:00,
2013-03-26 01:45:00,33.6,13.5,29.52,North,0,0.0,0.0,43,0.00,,OVC080,0.00,VWS V13.01,2013-03-26 05:45:00,
2013-03-26 01:50:00,33.4,13.4,29.52,North,0,0.0,0.0,43,0.00,,OVC080,0.00,VWS V13.01,2013-03-26 05:50:00,
2013-03-26 01:55:00,33.3,13.2,29.52,North,0,0.0,0.0,43,0.00,,OVC080,0.00,VWS V13.01,2013-03-26 05:55:00,
2013-03-26 02:00:00,33.1,12.5,29.52,North,0,0.0,0.0,42,0.00,,OVC080,0.00,VWS V13.01,2013-03-26 06:00:00,
2013-03-26 02:05:00,33.1,12.5,29.52,North,0,0.0,0.0,42,0.00,,OVC080,0.00,VWS V13.01,2013-03-26 06:05:00,
2013-03-26 02:10:00,32.9,12.3,29.52,North,0,0.0,0.0,42,0.00,,OVC080,0.00,VWS V13.01,2013-03-26 06:10:00,
2013-03-26 02:15:00,32.7,12.2,29.52,North,0,0.0,0.0,42,0.00,,OVC080,0.00,VWS V13.01,2013-03-26 06:15:00,
2013-03-26 02:21:00,32.7,12.2,29.52,North,0,0.0,0.0,42,0.00,,OVC080,0.00,VWS V13.01,2013-03-26 06:21:00,
2013-03-26 02:26:00,32.5,12.0,29.52,North,0,0.0,0.0,42,0.00,,OVC080,0.00,VWS V13.01,2013-03-26 06:26:00,
2013-03-26 02:31:00,32.5,12.0,29.52,North,0,0.0,0.0,42,0.00,,OVC080,0.00,VWS V13.01,2013-03-26 06:31:00,
2013-03-26 02:36:00,32.5,12.0,29.52,North,0,0.0,0.0,42,0.00,,OVC080,0.00,VWS V13.01,2013-03-26 06:36:00,
2013-03-26 02:41:00,32.5,12.0,29.52,North,0,0.0,0.0,42,0.00,,OVC080,0.00,VWS V13.01,2013-03-26 06:41:00,
2013-03-26 02:46:00,32.5,12.5,29.52,North,0,0.0,0.0,43,0.00,,OVC080,0.00,VWS V13.01,2013-03-26 06:46:00,
2013-03-26 02:51:00,32.7,12.7,29.52,North,0,0.0,0.0,43,0.00,,OVC080,0.00,VWS V13.01,2013-03-26 06:51:00,
2013-03-26 02:56:00,32.7,12.7,29.52,North,0,0.0,0.0,43,0.00,,OVC040,0.00,VWS V13.01,2013-03-26 06:56:00,
2013-03-26 03:01:00,32.7,12.7,29.52,North,0,0.0,0.0,43,0.00,,OVC040,0.00,VWS V13.01,2013-03-26 07:01:00,
2013-03-26 03:06:00,32.7,12.7,29.52,North,0,0.0,0.0,43,0.00,,OVC040,0.00,VWS V13.01,2013-03-26 07:06:00,
2013-03-26 03:11:00,32.7,12.7,29.52,North,0,0.0,0.0,43,0.00,,OVC040,0.00,VWS V13.01,2013-03-26 07:11:00,
2013-03-26 03:16:00,32.5,12.5,29.52,North,0,0.0,0.0,43,0.00,,OVC040,0.00,VWS V13.01,2013-03-26 07:16:00,
2013-03-26 03:21:00,32.5,12.5,29.52,North,0,0.0,0.0,43,0.00,,OVC040,0.00,VWS V13.01,2013-03-26 07:21:00,
2013-03-26 03:26:00,32.4,12.4,29.52,North,0,0.0,0.0,43,0.00,,OVC040,0.00,VWS V13.01,2013-03-26 07:26:00,
2013-03-26 03:31:00,32.5,12.5,29.52,North,0,0.0,0.0,43,0.00,,OVC040,0.00,VWS V13.01,2013-03-26 07:31:00,
2013-03-26 03:36:00,32.5,12.5,29.52,North,0,0.0,0.0,43,0.00,,OVC055,0.00,VWS V13.01,2013-03-26 07:36:00,
2013-03-26 03:41:00,32.5,12.5,29.52,North,0,0.0,0.0,43,0.00,,OVC055,0.00,VWS V13.01,2013-03-26 07:41:00,
2013-03-26 03:46:00,32.5,12.5,29.52,North,0,0.0,0.0,43,0.00,,OVC055,0.00,VWS V13.01,2013-03-26 07:46:00,
2013-03-26 03:51:00,32.4,12.4,29.52,North,0,0.0,0.0,43,0.00,,OVC055,0.00,VWS V13.01,2013-03-26 07:51:00,
2013-03-26 03:57:00,32.5,12.5,29.52,North,0,0.0,0.0,43,0.00,,OVC055,0.00,VWS V13.01,2013-03-26 07:57:00,
2013-03-26 04:02:00,32.5,12.5,29.52,North,0,0.0,0.0,43,0.00,,OVC055,0.00,VWS V13.01,2013-03-26 08:02:00,
2013-03-26 04:07:00,32.5,12.5,29.52,North,0,0.0,0.0,43,0.00,,OVC055,0.00,VWS V13.01,2013-03-26 08:07:00,
2013-03-26 04:12:00,32.5,12.5,29.52,North,0,0.0,0.0,43,0.00,,OVC055,0.00,VWS V13.01,2013-03-26 08:12:00,
2013-03-26 04:17:00,32.5,12.5,29.52,North,0,0.0,0.0,43,0.00,,OVC055,0.00,VWS V13.01,2013-03-26 08:17:00,
2013-03-26 04:22:00,32.4,12.4,29.52,North,0,0.0,0.0,43,0.00,,OVC055,0.00,VWS V13.01,2013-03-26 08:22:00,
2013-03-26 04:27:00,32.2,12.2,29.52,North,0,0.0,0.0,43,0.00,,OVC055,0.00,VWS V13.01,2013-03-26 08:27:00,
2013-03-26 04:32:00,32.2,12.2,29.52,North,0,0.0,0.0,43,0.00,,OVC048,0.00,VWS V13.01,2013-03-26 08:32:00,
2013-03-26 04:37:00,32.2,12.2,29.52,North,0,0.0,0.0,43,0.00,,OVC048,0.00,VWS V13.01,2013-03-26 08:37:00,
2013-03-26 04:42:00,32.4,12.9,29.52,North,0,0.0,0.0,44,0.00,,OVC048,0.00,VWS V13.01,2013-03-26 08:42:00,
2013-03-26 04:47:00,32.5,13.1,29.52,North,0,0.0,0.0,44,0.00,,OVC048,0.00,VWS V13.01,2013-03-26 08:47:00,
2013-03-26 04:52:00,32.5,13.1,29.52,North,0,0.0,0.0,44,0.00,,OVC044,0.00,VWS V13.01,2013-03-26 08:52:00,
2013-03-26 04:57:00,32.5,13.1,29.52,North,0,0.0,0.0,44,0.00,,OVC044,0.00,VWS V13.01,2013-03-26 08:57:00,
2013-03-26 05:02:00,32.5,13.1,29.52,North,0,0.0,0.0,44,0.00,,OVC044,0.00,VWS V13.01,2013-03-26 09:02:00,
2013-03-26 05:07:00,32.5,13.1,29.52,North,0,0.0,0.0,44,0.00,,OVC044,0.00,VWS V13.01,2013-03-26 09:07:00,
2013-03-26 05:12:00,32.5,13.1,29.52,North,0,0.0,0.0,44,0.00,,OVC044,0.00,VWS V13.01,2013-03-26 09:12:00,
2013-03-26 05:17:00,32.5,13.1,29.52,North,0,0.0,0.0,44,0.00,,OVC044,0.00,VWS V13.01,2013-03-26 09:17:00,
2013-03-26 05:22:00,32.5,13.1,29.52,North,0,0.0,0.0,44,0.00,,OVC044,0.00,VWS V13.01,2013-03-26 09:22:00,
2013-03-26 05:27:00,32.5,13.1,29.55,North,0,0.0,0.0,44,0.00,,OVC044,0.00,VWS V13.01,2013-03-26 09:27:00,
2013-03-26 05:32:00,32.5,13.1,29.55,North,0,0.0,0.0,44,0.00,,OVC050,0.00,VWS V13.01,2013-03-26 09:32:00,
2013-03-26 05:37:00,32.4,12.9,29.55,North,0,0.0,0.0,44,0.00,,OVC050,0.00,VWS V13.01,2013-03-26 09:37:00,
2013-03-26 05:42:00,32.4,12.9,29.55,North,0,0.0,0.0,44,0.00,,OVC050,0.00,VWS V13.01,2013-03-26 09:42:00,
2013-03-26 05:47:00,32.4,12.9,29.55,North,0,0.0,0.0,44,0.00,,OVC050,0.00,VWS V13.01,2013-03-26 09:47:00,
2013-03-26 05:52:00,32.2,12.7,29.55,North,0,0.0,0.0,44,0.00,,OVC040,0.00,VWS V13.01,2013-03-26 09:52:00,
2013-03-26 05:57:00,32.0,12.6,29.55,North,0,0.0,0.0,44,0.00,,OVC040,0.00,VWS V13.01,2013-03-26 09:57:00,
2013-03-26 06:02:00,31.8,12.4,29.55,North,0,0.0,0.0,44,0.00,,OVC040,0.00,VWS V13.01,2013-03-26 10:02:00,
2013-03-26 06:07:00,31.6,12.2,29.55,North,0,0.0,0.0,44,0.00,,OVC040,0.00,VWS V13.01,2013-03-26 10:07:00,
2013-03-26 06:12:00,31.5,12.1,29.55,North,0,0.0,0.0,44,0.00,,OVC040,0.00,VWS V13.01,2013-03-26 10:12:00,
2013-03-26 06:17:00,31.5,12.6,29.55,North,0,0.0,0.0,45,0.00,,OVC040,0.00,VWS V13.01,2013-03-26 10:17:00,
2013-03-26 06:22:00,31.5,12.6,29.55,North,0,0.0,0.0,45,0.00,,OVC040,0.00,VWS V13.01,2013-03-26 10:22:00,
2013-03-26 06:27:00,31.5,12.6,29.55,North,0,0.0,0.0,45,0.00,,OVC040,0.00,VWS V13.01,2013-03-26 10:27:00,
2013-03-26 06:32:00,31.5,12.6,29.55,North,0,0.0,0.0,45,0.00,,OVC036,0.00,VWS V13.01,2013-03-26 10:32:00,
2013-03-26 06:37:00,31.5,13.1,29.55,North,0,0.0,0.0,46,0.00,,OVC036,0.00,VWS V13.01,2013-03-26 10:37:00,
2013-03-26 06:42:00,31.5,13.1,29.55,North,0,0.0,0.0,46,0.00,,OVC036,0.00,VWS V13.01,2013-03-26 10:42:00,
2013-03-26 06:47:00,31.5,13.1,29.55,North,0,0.0,0.0,46,0.00,,OVC036,0.00,VWS V13.01,2013-03-26 10:47:00,
2013-03-26 06:52:00,31.5,13.1,29.55,North,0,0.0,0.0,46,0.00,,OVC034,0.00,VWS V13.01,2013-03-26 10:52:00,
2013-03-26 06:57:00,31.5,13.6,29.55,North,0,0.0,0.0,47,0.00,,OVC034,0.00,VWS V13.01,2013-03-26 10:57:00,
2013-03-26 07:02:00,31.5,13.6,29.55,North,0,0.0,0.0,47,0.00,,OVC034,0.00,VWS V13.01,2013-03-26 11:02:00,
2013-03-26 07:07:00,31.5,13.6,29.58,North,0,0.0,0.0,47,0.00,,OVC034,0.00,VWS V13.01,2013-03-26 11:07:00,
2013-03-26 07:12:00,31.5,13.6,29.58,North,0,0.0,0.0,47,0.00,,OVC034,0.00,VWS V13.01,2013-03-26 11:12:00,
2013-03-26 07:17:00,31.6,14.2,29.58,North,0,0.0,0.0,48,0.00,,OVC034,0.00,VWS V13.01,2013-03-26 11:17:00,
2013-03-26 07:23:00,31.6,14.2,29.58,North,0,0.0,0.0,48,0.00,,OVC034,0.00,VWS V13.01,2013-03-26 11:23:00,
2013-03-26 07:28:00,31.6,14.2,29.58,North,0,0.0,0.0,48,0.00,,OVC034,0.00,VWS V13.01,2013-03-26 11:28:00,
2013-03-26 07:33:00,31.6,14.2,29.58,North,0,0.0,0.0,48,0.00,,OVC032,0.00,VWS V13.01,2013-03-26 11:33:00,
2013-03-26 07:38:00,31.8,14.9,29.58,North,0,0.0,0.0,49,0.00,,OVC032,0.00,VWS V13.01,2013-03-26 11:38:00,
2013-03-26 07:43:00,31.8,14.9,29.58,North,0,0.0,0.0,49,0.00,,OVC032,0.00,VWS V13.01,2013-03-26 11:43:00,
2013-03-26 07:48:00,32.0,15.0,29.58,North,0,0.0,0.0,49,0.00,,OVC032,0.00,VWS V13.01,2013-03-26 11:48:00,
2013-03-26 07:53:00,32.0,15.0,29.58,North,0,0.0,0.0,49,0.00,,OVC028,0.00,VWS V13.01,2013-03-26 11:53:00,
2013-03-26 07:58:00,32.2,15.6,29.58,North,0,0.0,0.0,50,0.00,,OVC028,0.00,VWS V13.01,2013-03-26 11:58:00,
2013-03-26 08:03:00,32.2,15.6,29.58,North,0,0.0,0.0,50,0.00,,OVC028,0.00,VWS V13.01,2013-03-26 12:03:00,
2013-03-26 08:08:00,32.2,15.6,29.58,North,0,0.0,0.0,50,0.00,,OVC028,0.00,VWS V13.01,2013-03-26 12:08:00,
2013-03-26 08:13:00,32.2,15.6,29.58,North,0,0.0,0.0,50,0.00,,OVC028,0.00,VWS V13.01,2013-03-26 12:13:00,
2013-03-26 08:18:00,32.4,15.8,29.58,North,0,0.0,0.0,50,0.00,,OVC028,0.00,VWS V13.01,2013-03-26 12:18:00,
2013-03-26 08:23:00,32.5,16.0,29.61,North,0,0.0,0.0,50,0.00,,OVC028,0.00,VWS V13.01,2013-03-26 12:23:00,
2013-03-26 08:28:00,32.9,16.8,29.61,North,0,0.0,0.0,51,0.00,,OVC028,0.00,VWS V13.01,2013-03-26 12:28:00,
2013-03-26 08:33:00,33.3,17.1,29.61,North,0,0.0,0.0,51,0.00,,OVC043,0.00,VWS V13.01,2013-03-26 12:33:00,
2013-03-26 08:38:00,33.3,17.1,29.61,North,0,0.0,0.0,51,0.00,,OVC043,0.00,VWS V13.01,2013-03-26 12:38:00,
2013-03-26 08:43:00,33.6,17.4,29.61,North,0,0.0,0.0,51,0.00,,OVC043,0.00,VWS V13.01,2013-03-26 12:43:00,
2013-03-26 08:48:00,33.8,17.6,29.61,North,0,0.0,0.0,51,0.00,,OVC043,0.00,VWS V13.01,2013-03-26 12:48:00,
2013-03-26 08:53:00,34.5,18.3,29.61,North,0,0.0,0.0,51,0.00,,OVC043,0.00,VWS V13.01,2013-03-26 12:53:00,
2013-03-26 08:58:00,34.9,18.6,29.61,North,0,0.0,0.0,51,0.00,,OVC043,0.00,VWS V13.01,2013-03-26 12:58:00,
2013-03-26 09:03:00,34.9,18.6,29.61,North,0,0.0,0.0,51,0.00,,OVC043,0.00,VWS V13.01,2013-03-26 13:03:00,
2013-03-26 09:08:00,35.1,18.8,29.61,North,0,0.0,0.0,51,0.00,,OVC043,0.00,VWS V13.01,2013-03-26 13:08:00,
2013-03-26 09:13:00,35.2,18.9,29.61,North,0,0.0,0.0,51,0.00,,OVC046,0.00,VWS V13.01,2013-03-26 13:13:00,
2013-03-26 09:19:00,35.4,18.6,29.61,North,0,0.0,0.0,50,0.00,,OVC046,0.00,VWS V13.01,2013-03-26 13:19:00,
2013-03-26 09:24:00,35.6,18.8,29.61,North,0,0.0,0.0,50,0.00,,OVC046,0.00,VWS V13.01,2013-03-26 13:24:00,
2013-03-26 09:29:00,35.8,18.5,29.61,North,0,0.0,0.0,49,0.00,,OVC046,0.00,VWS V13.01,2013-03-26 13:29:00,
2013-03-26 09:34:00,35.8,17.5,29.61,North,0,0.0,0.0,47,0.00,,OVC049,0.00,VWS V13.01,2013-03-26 13:34:00,
2013-03-26 09:39:00,35.6,16.4,29.61,North,0,0.0,0.0,45,0.00,,OVC049,0.00,VWS V13.01,2013-03-26 13:39:00,
2013-03-26 09:44:00,35.6,15.9,29.61,North,0,0.0,0.0,44,0.00,,OVC049,0.00,VWS V13.01,2013-03-26 13:44:00,
2013-03-26 09:49:00,35.8,15.5,29.61,North,0,0.0,0.0,43,0.00,,OVC049,0.00,VWS V13.01,2013-03-26 13:49:00,
2013-03-26 09:54:00,36.1,15.8,29.61,North,0,0.0,0.0,43,0.00,,OVC049,0.00,VWS V13.01,2013-03-26 13:54:00,
2013-03-26 09:59:00,36.9,16.5,29.61,North,0,0.0,0.0,43,0.00,,OVC049,0.00,VWS V13.01,2013-03-26 13:59:00,
2013-03-26 10:04:00,37.4,15.9,29.61,North,0,0.0,0.0,41,0.00,,OVC049,0.00,VWS V13.01,2013-03-26 14:04:00,
2013-03-26 10:09:00,37.6,16.0,29.61,North,0,0.0,0.0,41,0.00,,OVC049,0.00,VWS V13.01,2013-03-26 14:09:00,
2013-03-26 10:14:00,37.4,15.3,29.61,North,0,0.0,0.0,40,0.00,,OVC049,0.00,VWS V13.01,2013-03-26 14:14:00,
2013-03-26 10:19:00,38.5,16.3,29.61,North,0,0.0,0.0,40,0.00,,OVC049,0.00,VWS V13.01,2013-03-26 14:19:00,
2013-03-26 10:24:00,39.7,16.8,29.61,North,0,0.0,0.0,39,0.00,,OVC049,0.00,VWS V13.01,2013-03-26 14:24:00,
2013-03-26 10:29:00,40.1,15.3,29.61,North,0,0.0,0.0,36,0.00,,OVC049,0.00,VWS V13.01,2013-03-26 14:29:00,
2013-03-26 10:34:00,41.0,15.5,29.61,North,0,0.0,0.0,35,0.00,,BKN055,0.00,VWS V13.01,2013-03-26 14:34:00,
2013-03-26 10:39:00,41.9,14.9,29.61,North,0,0.0,0.0,33,0.00,,BKN055,0.00,VWS V13.01,2013-03-26 14:39:00,
2013-03-26 10:44:00,41.4,13.7,29.61,North,0,0.0,0.0,32,0.00,,BKN055,0.00,VWS V13.01,2013-03-26 14:44:00,
2013-03-26 10:49:00,39.9,12.5,29.61,North,0,0.0,0.0,32,0.00,,BKN055,0.00,VWS V13.01,2013-03-26 14:49:00,
2013-03-26 10:54:00,39.2,11.1,29.61,North,0,0.0,0.0,31,0.00,,OVC060,0.00,VWS V13.01,2013-03-26 14:54:00,
2013-03-26 10:59:00,38.3,10.3,29.61,North,0,0.0,0.0,31,0.00,,OVC060,0.00,VWS V13.01,2013-03-26 14:59:00,
2013-03-26 11:04:00,38.1,10.2,29.61,North,0,0.0,0.0,31,0.00,,OVC060,0.00,VWS V13.01,2013-03-26 15:04:00,
2013-03-26 11:09:00,38.7,10.6,29.64,North,0,0.0,0.0,31,0.00,,OVC060,0.00,VWS V13.01,2013-03-26 15:09:00,
2013-03-26 11:14:00,38.8,10.8,29.64,North,0,0.0,0.0,31,0.00,,OVC060,0.00,VWS V13.01,2013-03-26 15:14:00,
2013-03-26 11:19:00,38.5,10.5,29.64,North,0,0.0,0.0,31,0.00,,OVC060,0.00,VWS V13.01,2013-03-26 15:19:00,
2013-03-26 11:24:00,38.3,10.3,29.64,North,0,0.0,0.0,31,0.00,,OVC060,0.00,VWS V13.01,2013-03-26 15:24:00,
2013-03-26 11:29:00,37.9,10.0,29.64,North,0,0.0,0.0,31,0.00,,OVC060,0.00,VWS V13.01,2013-03-26 15:29:00,
2013-03-26 11:34:00,37.8,9.9,29.64,North,0,0.0,0.0,31,0.00,,OVC050,0.00,VWS V13.01,2013-03-26 15:34:00,
2013-03-26 11:39:00,37.9,10.0,29.64,North,0,0.0,0.0,31,0.00,,OVC050,0.00,VWS V13.01,2013-03-26 15:39:00,
2013-03-26 11:44:00,38.3,10.3,29.64,North,0,0.0,0.0,31,0.00,,OVC050,0.00,VWS V13.01,2013-03-26 15:44:00,
2013-03-26 11:49:00,38.5,10.5,29.64,North,0,0.0,0.0,31,0.00,,OVC050,0.00,VWS V13.01,2013-03-26 15:49:00,
2013-03-26 11:54:00,38.7,10.6,29.64,North,0,0.0,0.0,31,0.00,,OVC055,0.00,VWS V13.01,2013-03-26 15:54:00,
2013-03-26 11:59:00,38.8,10.8,29.64,North,0,0.0,0.0,31,0.00,,OVC055,0.00,VWS V13.01,2013-03-26 15:59:00,
2013-03-26 12:04:00,38.8,10.1,29.64,North,0,0.0,0.0,30,0.00,,OVC055,0.00,VWS V13.01,2013-03-26 16:04:00,
2013-03-26 12:09:00,38.8,10.1,29.64,North,0,0.0,0.0,30,0.00,,OVC055,0.00,VWS V13.01,2013-03-26 16:09:00,
2013-03-26 12:14:00,39.4,10.5,29.64,North,0,0.0,0.0,30,0.00,,OVC055,0.00,VWS V13.01,2013-03-26 16:14:00,
2013-03-26 12:19:00,41.2,11.4,29.64,North,0,0.0,0.0,29,0.00,,OVC055,0.00,VWS V13.01,2013-03-26 16:19:00,
2013-03-26 12:24:00,42.8,12.8,29.64,North,0,0.0,0.0,29,0.00,,OVC055,0.00,VWS V13.01,2013-03-26 16:24:00,
2013-03-26 12:29:00,43.9,13.7,29.64,North,0,0.0,0.0,29,0.00,,OVC055,0.00,VWS V13.01,2013-03-26 16:29:00,
2013-03-26 12:34:00,43.7,13.5,29.64,North,0,0.0,0.0,29,0.00,,OVC050,0.00,VWS V13.01,2013-03-26 16:34:00,
2013-03-26 12:39:00,43.2,13.1,29.64,North,0,0.0,0.0,29,0.00,,OVC050,0.00,VWS V13.01,2013-03-26 16:39:00,
2013-03-26 12:44:00,43.5,13.4,29.64,North,0,0.0,0.0,29,0.00,,OVC050,0.00,VWS V13.01,2013-03-26 16:44:00,
2013-03-26 12:49:00,42.8,12.0,29.64,North,0,0.0,0.0,28,0.00,,OVC050,0.00,VWS V13.01,2013-03-26 16:49:00,
2013-03-26 12:55:00,42.1,12.1,29.64,North,0,0.0,0.0,29,0.00,,OVC055,0.00,VWS V13.01,2013-03-26 16:55:00,
2013-03-26 13:00:00,42.6,12.6,29.64,North,0,0.0,0.0,29,0.00,,OVC055,0.00,VWS V13.01,2013-03-26 17:00:00,
2013-03-26 13:05:00,44.2,14.0,29.64,North,0,0.0,0.0,29,0.00,,OVC055,0.00,VWS V13.01,2013-03-26 17:05:00,
2013-03-26 13:10:00,45.1,14.0,29.64,North,0,0.0,0.0,28,0.00,,OVC055,0.00,VWS V13.01,2013-03-26 17:10:00,
2013-03-26 13:15:00,43.9,12.9,29.64,North,0,0.0,0.0,28,0.00,,OVC055,0.00,VWS V13.01,2013-03-26 17:15:00,
2013-03-26 13:20:00,42.6,11.8,29.64,North,0,0.0,0.0,28,0.00,,OVC055,0.00,VWS V13.01,2013-03-26 17:20:00,
2013-03-26 13:25:00,42.3,11.5,29.64,North,0,0.0,0.0,28,0.00,,OVC055,0.00,VWS V13.01,2013-03-26 17:25:00,
2013-03-26 13:30:00,42.6,11.8,29.64,North,0,0.0,0.0,28,0.00,,OVC055,0.00,VWS V13.01,2013-03-26 17:30:00,
2013-03-26 13:35:00,43.0,12.1,29.64,North,0,0.0,0.0,28,0.00,,OVC065,0.00,VWS V13.01,2013-03-26 17:35:00,
2013-03-26 13:40:00,42.8,12.0,29.64,North,0,0.0,0.0,28,0.00,,OVC065,0.00,VWS V13.01,2013-03-26 17:40:00,
2013-03-26 13:45:00,42.6,11.8,29.64,North,0,0.0,0.0,28,0.00,,OVC065,0.00,VWS V13.01,2013-03-26 17:45:00,
2013-03-26 13:50:00,42.3,11.5,29.64,North,0,0.0,0.0,28,0.00,,OVC065,0.00,VWS V13.01,2013-03-26 17:50:00,
2013-03-26 13:55:00,42.1,9.7,29.64,North,0,0.0,0.0,26,0.00,,OVC065,0.00,VWS V13.01,2013-03-26 17:55:00,
2013-03-26 14:00:00,42.4,10.0,29.64,North,0,0.0,0.0,26,0.00,,OVC065,0.00,VWS V13.01,2013-03-26 18:00:00,
2013-03-26 14:05:00,42.6,10.1,29.64,North,0,0.0,0.0,26,0.00,,OVC065,0.00,VWS V13.01,2013-03-26 18:05:00,
2013-03-26 14:10:00,42.3,9.8,29.64,North,0,0.0,0.0,26,0.00,,OVC065,0.00,VWS V13.01,2013-03-26 18:10:00,
2013-03-26 14:15:00,41.5,10.9,29.64,North,0,0.0,0.0,28,0.00,,OVC065,0.00,VWS V13.01,2013-03-26 18:15:00,
2013-03-26 14:20:00,41.7,11.0,29.64,North,0,0.0,0.0,28,0.00,,OVC065,0.00,VWS V13.01,2013-03-26 18:20:00,
2013-03-26 14:25:00,43.3,12.4,29.64,North,0,0.0,0.0,28,0.00,,OVC065,0.00,VWS V13.01,2013-03-26 18:25:00,
2013-03-26 14:30:00,43.5,12.6,29.64,North,0,0.0,0.0,28,0.00,,OVC065,0.00,VWS V13.01,2013-03-26 18:30:00,
2013-03-26 14:35:00,42.8,9.4,29.64,North,0,0.0,0.0,25,0.00,,FEW065,0.00,VWS V13.01,2013-03-26 18:35:00,
2013-03-26 14:40:00,42.1,9.7,29.64,North,0,0.0,0.0,26,0.00,,FEW065,0.00,VWS V13.01,2013-03-26 18:40:00,
2013-03-26 14:45:00,42.1,9.7,29.64,North,0,0.0,0.0,26,0.00,,FEW065,0.00,VWS V13.01,2013-03-26 18:45:00,
2013-03-26 14:50:00,42.6,10.1,29.64,North,0,0.0,0.0,26,0.00,,FEW065,0.00,VWS V13.01,2013-03-26 18:50:00,
2013-03-26 14:55:00,43.9,10.4,29.64,North,0,0.0,0.0,25,0.00,,SCT065,0.00,VWS V13.01,2013-03-26 18:55:00,
2013-03-26 15:00:00,43.7,10.2,29.64,North,0,0.0,0.0,25,0.00,,SCT065,0.00,VWS V13.01,2013-03-26 19:00:00,
2013-03-26 15:05:00,43.3,9.9,29.64,North,0,0.0,0.0,25,0.00,,SCT065,0.00,VWS V13.01,2013-03-26 19:05:00,
2013-03-26 15:10:00,43.0,9.6,29.64,North,0,0.0,0.0,25,0.00,,SCT065,0.00,VWS V13.01,2013-03-26 19:10:00,
2013-03-26 15:15:00,43.5,10.0,29.64,North,0,0.0,0.0,25,0.00,,SCT065,0.00,VWS V13.01,2013-03-26 19:15:00,
2013-03-26 15:20:00,45.1,11.4,29.64,North,0,0.0,0.0,25,0.00,,SCT065,0.00,VWS V13.01,2013-03-26 19:20:00,
2013-03-26 15:25:00,45.1,11.4,29.64,North,0,0.0,0.0,25,0.00,,SCT065,0.00,VWS V13.01,2013-03-26 19:25:00,
2013-03-26 15:30:00,44.2,10.7,29.64,North,0,0.0,0.0,25,0.00,,SCT065,0.00,VWS V13.01,2013-03-26 19:30:00,
2013-03-26 15:35:00,45.1,11.4,29.64,North,0,0.0,0.0,25,0.00,,BKN065,0.00,VWS V13.01,2013-03-26 19:35:00,
2013-03-26 15:40:00,46.0,12.2,29.64,North,0,0.0,0.0,25,0.00,,BKN065,0.00,VWS V13.01,2013-03-26 19:40:00,
2013-03-26 15:45:00,45.3,8.7,29.64,North,0,0.0,0.0,22,0.00,,BKN065,0.00,VWS V13.01,2013-03-26 19:45:00,
2013-03-26 15:50:00,44.2,8.8,29.64,North,0,0.0,0.0,23,0.00,,BKN065,0.00,VWS V13.01,2013-03-26 19:50:00,
2013-03-26 15:55:00,44.1,8.6,29.64,North,0,0.0,0.0,23,0.00,,BKN065,0.00,VWS V13.01,2013-03-26 19:55:00,
2013-03-26 16:00:00,43.2,7.9,29.64,North,0,0.0,0.0,23,0.00,,BKN065,0.00,VWS V13.01,2013-03-26 20:00:00,
2013-03-26 16:05:00,42.4,7.3,29.64,North,0,0.0,0.0,23,0.00,,BKN065,0.00,VWS V13.01,2013-03-26 20:05:00,
2013-03-26 16:10:00,41.9,6.8,29.64,North,0,0.0,0.0,23,0.00,,BKN065,0.00,VWS V13.01,2013-03-26 20:10:00,
2013-03-26 16:15:00,41.7,6.7,29.64,North,0,0.0,0.0,23,0.00,,BKN065,0.00,VWS V13.01,2013-03-26 20:15:00,
2013-03-26 16:20:00,43.2,9.7,29.64,North,0,0.0,0.0,25,0.00,,BKN065,0.00,VWS V13.01,2013-03-26 20:20:00,
2013-03-26 16:25:00,45.0,11.3,29.64,North,0,0.0,0.0,25,0.00,,BKN065,0.00,VWS V13.01,2013-03-26 20:25:00,
2013-03-26 16:30:00,45.3,8.7,29.64,North,0,0.0,0.0,22,0.00,,BKN065,0.00,VWS V13.01,2013-03-26 20:30:00,
2013-03-26 16:35:00,44.8,8.3,29.64,North,0,0.0,0.0,22,0.00,,BKN065,0.00,VWS V13.01,2013-03-26 20:35:00,
2013-03-26 16:40:00,43.5,8.2,29.64,North,0,0.0,0.0,23,0.00,,BKN065,0.00,VWS V13.01,2013-03-26 20:40:00,
2013-03-26 16:45:00,43.0,7.7,29.64,North,0,0.0,0.0,23,0.00,,BKN065,0.00,VWS V13.01,2013-03-26 20:45:00,
2013-03-26 16:50:00,42.1,7.0,29.64,North,0,0.0,0.0,23,0.00,,BKN065,0.00,VWS V13.01,2013-03-26 20:50:00,
2013-03-26 16:55:00,41.9,6.8,29.64,North,0,0.0,0.0,23,0.00,,BKN065,0.00,VWS V13.01,2013-03-26 20:55:00,
2013-03-26 17:00:00,43.2,7.9,29.64,North,0,0.0,0.0,23,0.00,,BKN065,0.00,VWS V13.01,2013-03-26 21:00:00,
2013-03-26 17:05:00,44.8,8.3,29.64,North,0,0.0,0.0,22,0.00,,BKN065,0.00,VWS V13.01,2013-03-26 21:05:00,
2013-03-26 17:10:00,45.3,8.7,29.64,North,0,0.0,0.0,22,0.00,,BKN065,0.00,VWS V13.01,2013-03-26 21:10:00,
2013-03-26 17:15:00,44.6,8.1,29.64,North,0,0.0,0.0,22,0.00,,BKN065,0.00,VWS V13.01,2013-03-26 21:15:00,
2013-03-26 17:20:00,43.5,8.2,29.64,North,0,0.0,0.0,23,0.00,,BKN065,0.00,VWS V13.01,2013-03-26 21:20:00,
2013-03-26 17:25:00,42.8,7.6,29.67,North,0,0.0,0.0,23,0.00,,BKN065,0.00,VWS V13.01,2013-03-26 21:25:00,
2013-03-26 17:30:00,41.9,6.8,29.67,North,0,0.0,0.0,23,0.00,,BKN065,0.00,VWS V13.01,2013-03-26 21:30:00,
2013-03-26 17:35:00,41.4,6.4,29.67,North,0,0.0,0.0,23,0.00,,BKN065,0.00,VWS V13.01,2013-03-26 21:35:00,
2013-03-26 17:40:00,41.0,6.1,29.67,North,0,0.0,0.0,23,0.00,,BKN065,0.00,VWS V13.01,2013-03-26 21:40:00,
2013-03-26 17:45:00,41.4,6.4,29.67,North,0,0.0,0.0,23,0.00,,BKN065,0.00,VWS V13.01,2013-03-26 21:45:00,
2013-03-26 17:51:00,42.6,7.4,29.67,North,0,0.0,0.0,23,0.00,,BKN065,0.00,VWS V13.01,2013-03-26 21:51:00,
2013-03-26 17:56:00,43.5,8.2,29.67,North,0,0.0,0.0,23,0.00,,BKN065,0.00,VWS V13.01,2013-03-26 21:56:00,
2013-03-26 18:01:00,44.1,8.6,29.67,North,0,0.0,0.0,23,0.00,,BKN065,0.00,VWS V13.01,2013-03-26 22:01:00,
2013-03-26 18:06:00,43.7,8.3,29.67,North,0,0.0,0.0,23,0.00,,BKN065,0.00,VWS V13.01,2013-03-26 22:06:00,
2013-03-26 18:11:00,43.9,8.5,29.67,North,0,0.0,0.0,23,0.00,,BKN065,0.00,VWS V13.01,2013-03-26 22:11:00,
2013-03-26 18:16:00,44.1,8.6,29.67,North,0,0.0,0.0,23,0.00,,BKN065,0.00,VWS V13.01,2013-03-26 22:16:00,
2013-03-26 18:21:00,44.1,8.6,29.67,North,0,0.0,0.0,23,0.00,,BKN065,0.00,VWS V13.01,2013-03-26 22:21:00,
2013-03-26 18:26:00,43.5,8.2,29.67,North,0,0.0,0.0,23,0.00,,BKN065,0.00,VWS V13.01,2013-03-26 22:26:00,
2013-03-26 18:31:00,43.3,8.0,29.67,North,0,0.0,0.0,23,0.00,,BKN065,0.00,VWS V13.01,2013-03-26 22:31:00,
2013-03-26 18:36:00,42.8,7.6,29.67,North,0,0.0,0.0,23,0.00,,FEW065,0.00,VWS V13.01,2013-03-26 22:36:00,
2013-03-26 18:41:00,42.3,7.1,29.67,North,0,0.0,0.0,23,0.00,,FEW065,0.00,VWS V13.01,2013-03-26 22:41:00,
2013-03-26 18:46:00,41.7,6.7,29.67,North,0,0.0,0.0,23,0.00,,FEW065,0.00,VWS V13.01,2013-03-26 22:46:00,
2013-03-26 18:51:00,41.0,6.1,29.67,North,0,0.0,0.0,23,0.00,,CLR,0.00,VWS V13.01,2013-03-26 22:51:00,
2013-03-26 18:57:00,40.3,5.4,29.70,North,0,0.0,0.0,23,0.00,,CLR,0.00,VWS V13.01,2013-03-26 22:57:00,
2013-03-26 19:02:00,39.7,5.0,29.70,North,0,0.0,0.0,23,0.00,,CLR,0.00,VWS V13.01,2013-03-26 23:02:00,
2013-03-26 19:07:00,39.0,5.3,29.70,North,0,0.0,0.0,24,0.00,,CLR,0.00,VWS V13.01,2013-03-26 23:07:00,
2013-03-26 19:12:00,38.5,4.8,29.70,North,0,0.0,0.0,24,0.00,,CLR,0.00,VWS V13.01,2013-03-26 23:12:00,
2013-03-26 19:17:00,38.1,4.5,29.70,North,0,0.0,0.0,24,0.00,,CLR,0.00,VWS V13.01,2013-03-26 23:17:00,
2013-03-26 19:22:00,37.9,4.4,29.70,North,0,0.0,0.0,24,0.00,,CLR,0.00,VWS V13.01,2013-03-26 23:22:00,
2013-03-26 19:27:00,37.6,4.1,29.70,North,0,0.0,0.0,24,0.00,,CLR,0.00,VWS V13.01,2013-03-26 23:27:00,
2013-03-26 19:32:00,37.4,3.9,29.70,North,0,0.0,0.0,24,0.00,,FEW065,0.00,VWS V13.01,2013-03-26 23:32:00,
2013-03-26 19:37:00,37.4,3.9,29.70,North,0,0.0,0.0,24,0.00,,FEW065,0.00,VWS V13.01,2013-03-26 23:37:00,
2013-03-26 19:42:00,37.2,3.8,29.70,North,0,0.0,0.0,24,0.00,,FEW065,0.00,VWS V13.01,2013-03-26 23:42:00,
2013-03-26 19:47:00,37.0,3.6,29.70,North,0,0.0,0.0,24,0.00,,FEW065,0.00,VWS V13.01,2013-03-26 23:47:00,
2013-03-26 19:52:00,36.9,3.5,29.70,North,0,0.0,0.0,24,0.00,,CLR,0.00,VWS V13.01,2013-03-26 23:52:00,
2013-03-26 19:57:00,36.7,3.3,29.70,North,0,0.0,0.0,24,0.00,,CLR,0.00,VWS V13.01,2013-03-26 23:57:00,
2013-03-26 20:02:00,36.7,3.3,29.70,North,0,0.0,0.0,24,0.00,,CLR,0.00,VWS V13.01,2013-03-27 00:02:00,
2013-03-26 20:07:00,36.5,3.2,29.70,North,0,0.0,0.0,24,0.00,,CLR,0.00,VWS V13.01,2013-03-27 00:07:00,
2013-03-26 20:12:00,36.5,3.2,29.70,North,0,0.0,0.0,24,0.00,,CLR,0.00,VWS V13.01,2013-03-27 00:12:00,
2013-03-26 20:17:00,36.5,3.2,29.70,North,0,0.0,0.0,24,0.00,,CLR,0.00,VWS V13.01,2013-03-27 00:17:00,
2013-03-26 20:22:00,36.3,3.0,29.70,North,0,0.0,0.0,24,0.00,,CLR,0.00,VWS V13.01,2013-03-27 00:22:00,
2013-03-26 20:27:00,36.1,2.8,29.70,North,0,0.0,0.0,24,0.00,,CLR,0.00,VWS V13.01,2013-03-27 00:27:00,
2013-03-26 20:32:00,36.1,2.8,29.70,North,0,0.0,0.0,24,0.00,,CLR,0.00,VWS V13.01,2013-03-27 00:32:00,
2013-03-26 20:38:00,36.3,3.0,29.70,North,0,0.0,0.0,24,0.00,,CLR,0.00,VWS V13.01,2013-03-27 00:38:00,
2013-03-26 20:43:00,36.3,3.0,29.70,North,0,0.0,0.0,24,0.00,,CLR,0.00,VWS V13.01,2013-03-27 00:43:00,
2013-03-26 20:48:00,36.1,2.8,29.70,North,0,0.0,0.0,24,0.00,,CLR,0.00,VWS V13.01,2013-03-27 00:48:00,
2013-03-26 20:53:00,36.1,2.8,29.70,North,0,0.0,0.0,24,0.00,,CLR,0.00,VWS V13.01,2013-03-27 00:53:00,
2013-03-26 20:58:00,36.1,2.8,29.70,North,0,0.0,0.0,24,0.00,,CLR,0.00,VWS V13.01,2013-03-27 00:58:00,
2013-03-26 21:03:00,35.8,2.5,29.70,North,0,0.0,0.0,24,0.00,,CLR,0.00,VWS V13.01,2013-03-27 01:03:00,
2013-03-26 21:08:00,35.6,2.4,29.70,North,0,0.0,0.0,24,0.00,,CLR,0.00,VWS V13.01,2013-03-27 01:08:00,
2013-03-26 21:13:00,35.6,2.4,29.73,North,0,0.0,0.0,24,0.00,,CLR,0.00,VWS V13.01,2013-03-27 01:13:00,
2013-03-26 21:18:00,35.4,3.1,29.73,North,0,0.0,0.0,25,0.00,,CLR,0.00,VWS V13.01,2013-03-27 01:18:00,
2013-03-26 21:23:00,35.2,3.0,29.73,North,0,0.0,0.0,25,0.00,,CLR,0.00,VWS V13.01,2013-03-27 01:23:00,
2013-03-26 21:28:00,35.2,3.0,29.73,North,0,0.0,0.0,25,0.00,,CLR,0.00,VWS V13.01,2013-03-27 01:28:00,
2013-03-26 21:33:00,35.1,2.8,29.73,North,0,0.0,0.0,25,0.00,,CLR,0.00,VWS V13.01,2013-03-27 01:33:00,
2013-03-26 21:38:00,35.1,2.8,29.73,North,0,0.0,0.0,25,0.00,,CLR,0.00,VWS V13.01,2013-03-27 01:38:00,
2013-03-26 21:43:00,34.9,2.6,29.73,North,0,0.0,0.0,25,0.00,,CLR,0.00,VWS V13.01,2013-03-27 01:43:00,
2013-03-26 21:48:00,34.9,2.6,29.73,North,0,0.0,0.0,25,0.00,,CLR,0.00,VWS V13.01,2013-03-27 01:48:00,
2013-03-26 21:53:00,34.9,2.6,29.73,North,0,0.0,0.0,25,0.00,,CLR,0.00,VWS V13.01,2013-03-27 01:53:00,
2013-03-26 21:58:00,34.9,2.6,29.73,North,0,0.0,0.0,25,0.00,,CLR,0.00,VWS V13.01,2013-03-27 01:58:00,
2013-03-26 22:03:00,34.9,2.6,29.73,North,0,0.0,0.0,25,0.00,,CLR,0.00,VWS V13.01,2013-03-27 02:03:00,
2013-03-26 22:08:00,34.9,2.6,29.73,North,0,0.0,0.0,25,0.00,,CLR,0.00,VWS V13.01,2013-03-27 02:08:00,
2013-03-26 22:13:00,34.9,2.6,29.73,North,0,0.0,0.0,25,0.00,,CLR,0.00,VWS V13.01,2013-03-27 02:13:00,
2013-03-26 22:18:00,34.5,2.3,29.73,North,0,0.0,0.0,25,0.00,,CLR,0.00,VWS V13.01,2013-03-27 02:18:00,
2013-03-26 22:23:00,34.2,2.0,29.73,North,0,0.0,0.0,25,0.00,,CLR,0.00,VWS V13.01,2013-03-27 02:23:00,
2013-03-26 22:28:00,33.8,1.7,29.73,North,0,0.0,0.0,25,0.00,,CLR,0.00,VWS V13.01,2013-03-27 02:28:00,
2013-03-26 22:33:00,33.4,1.4,29.73,North,0,0.0,0.0,25,0.00,,CLR,0.00,VWS V13.01,2013-03-27 02:33:00,
2013-03-26 22:38:00,33.1,1.1,29.73,North,0,0.0,0.0,25,0.00,,CLR,0.00,VWS V13.01,2013-03-27 02:38:00,
2013-03-26 22:43:00,32.7,0.8,29.73,North,0,0.0,0.0,25,0.00,,CLR,0.00,VWS V13.01,2013-03-27 02:43:00,
2013-03-26 22:48:00,32.7,0.8,29.73,North,0,0.0,0.0,25,0.00,,CLR,0.00,VWS V13.01,2013-03-27 02:48:00,
2013-03-26 22:53:00,32.9,0.9,29.73,North,0,0.0,0.0,25,0.00,,CLR,0.00,VWS V13.01,2013-03-27 02:53:00,
2013-03-26 22:58:00,32.9,0.9,29.73,North,0,0.0,0.0,25,0.00,,CLR,0.00,VWS V13.01,2013-03-27 02:58:00,
2013-03-26 23:03:00,32.7,0.8,29.73,North,0,0.0,0.0,25,0.00,,CLR,0.00,VWS V13.01,2013-03-27 03:03:00,
2013-03-26 23:08:00,32.7,3.2,29.73,North,0,0.0,0.0,28,0.00,,CLR,0.00,VWS V13.01,2013-03-27 03:08:00,
2013-03-26 23:13:00,32.7,3.2,29.73,North,0,0.0,0.0,28,0.00,,CLR,0.00,VWS V13.01,2013-03-27 03:13:00,
2013-03-26 23:18:00,32.7,3.2,29.73,North,0,0.0,0.0,28,0.00,,CLR,0.00,VWS V13.01,2013-03-27 03:18:00,
2013-03-26 23:23:00,32.7,3.2,29.73,North,0,0.0,0.0,28,0.00,,CLR,0.00,VWS V13.01,2013-03-27 03:23:00,
2013-03-26 23:28:00,32.7,3.2,29.73,North,0,0.0,0.0,28,0.00,,CLR,0.00,VWS V13.01,2013-03-27 03:28:00,
2013-03-26 23:33:00,32.7,3.2,29.73,North,0,0.0,0.0,28,0.00,,CLR,0.00,VWS V13.01,2013-03-27 03:33:00,
2013-03-26 23:38:00,32.9,3.4,29.73,North,0,0.0,0.0,28,0.00,,CLR,0.00,VWS V13.01,2013-03-27 03:38:00,
2013-03-26 23:43:00,33.1,3.5,29.73,North,0,0.0,0.0,28,0.00,,CLR,0.00,VWS V13.01,2013-03-27 03:43:00,
2013-03-26 23:48:00,33.1,3.5,29.73,North,0,0.0,0.0,28,0.00,,CLR,0.00,VWS V13.01,2013-03-27 03:48:00,
2013-03-26 23:53:00,33.1,3.5,29.73,North,0,0.0,0.0,28,0.00,,CLR,0.00,VWS V13.01,2013-03-27 03:53:00,
2013-03-26 23:58:00,32.9,3.4,29.73,North,0,0.0,0.0,28,0.00,,CLR,0.00,VWS V13.01,2013-03-27 03:58:00,